Location: Bay Harbour
(38.2612°N, 75.2555°W)
Time: 01:34:37
(UTC+00:00)

Cosmos 2082 - Pass Details

Date: 29 October 2020
Orbit: 832 x 857 km, 71.0° (Epoch: 02 December)

Event Time Altitude Azimuth Distance (km) Brightness Sun altitude
Rises 23:18:35 0° 342° (NNW) 3,434 7.0 -15.1°
Reaches altitude 10° 23:21:08 10° 347° (NNW) 2,496 6.2 -15.6°
Maximum altitude 23:26:43 52° 64° (ENE) 1,062 3.8 -16.7°
Enters shadow 23:31:53 12° 139° (SE) 2,344 5.7 -17.7°
